Year,Month,Day,Hour,Minute,Value (Times are PST for temperature in C)
2017,05,22,00,00,14.80
2017,05,22,00,01,14.80
2017,05,22,00,02,14.80
2017,05,22,00,03,14.80
2017,05,22,00,04,14.80
2017,05,22,00,05,14.80
2017,05,22,00,06,14.80
2017,05,22,00,07,14.80
2017,05,22,00,08,14.80
2017,05,22,00,09,14.80
2017,05,22,00,10,14.80
2017,05,22,00,11,14.80
2017,05,22,00,12,14.80
2017,05,22,00,13,14.80
2017,05,22,00,14,14.80
2017,05,22,00,15,14.80
2017,05,22,00,16,14.80
2017,05,22,00,17,14.80
2017,05,22,00,18,14.80
2017,05,22,00,19,14.90
2017,05,22,00,20,14.90
2017,05,22,00,21,14.90
2017,05,22,00,22,14.90
2017,05,22,00,23,14.90
2017,05,22,00,24,14.90
2017,05,22,00,25,14.90
2017,05,22,00,26,14.90
2017,05,22,00,27,15.00
2017,05,22,00,28,14.90
2017,05,22,00,29,15.00
2017,05,22,00,30,15.00
2017,05,22,00,31,14.90
2017,05,22,00,32,14.90
2017,05,22,00,33,15.00
2017,05,22,00,34,14.90
2017,05,22,00,35,14.90
2017,05,22,00,36,14.90
2017,05,22,00,37,14.90
2017,05,22,00,38,14.90
2017,05,22,00,39,14.90
2017,05,22,00,40,14.90
2017,05,22,00,41,14.90
2017,05,22,00,42,14.90
2017,05,22,00,43,14.90
2017,05,22,00,44,14.90
2017,05,22,00,45,14.90
2017,05,22,00,46,14.90
2017,05,22,00,47,15.00
2017,05,22,00,48,15.00
2017,05,22,00,49,15.00
2017,05,22,00,50,15.00
2017,05,22,00,51,15.00
2017,05,22,00,52,15.10
2017,05,22,00,53,15.10
2017,05,22,00,54,15.10
2017,05,22,00,55,15.10
2017,05,22,00,56,15.10
2017,05,22,00,57,15.10
2017,05,22,00,58,15.10
2017,05,22,00,59,15.20
2017,05,22,01,00,15.20
2017,05,22,01,01,15.20
2017,05,22,01,02,15.20
2017,05,22,01,03,15.20
2017,05,22,01,04,15.20
2017,05,22,01,05,15.20
2017,05,22,01,06,15.20
2017,05,22,01,07,15.20
2017,05,22,01,08,15.20
2017,05,22,01,09,15.20
2017,05,22,01,10,15.20
2017,05,22,01,11,15.20
2017,05,22,01,12,15.20
2017,05,22,01,13,15.10
2017,05,22,01,14,15.10
2017,05,22,01,15,15.10
2017,05,22,01,16,15.10
2017,05,22,01,17,15.10
2017,05,22,01,18,15.10
2017,05,22,01,19,15.10
2017,05,22,01,20,15.10
2017,05,22,01,21,15.10
2017,05,22,01,22,15.10
2017,05,22,01,23,15.10
2017,05,22,01,24,15.10
2017,05,22,01,25,15.10
2017,05,22,01,26,15.10
2017,05,22,01,27,15.10
2017,05,22,01,28,15.10
2017,05,22,01,29,15.10
2017,05,22,01,30,15.10
2017,05,22,01,31,15.20
2017,05,22,01,32,15.20
2017,05,22,01,33,15.20
2017,05,22,01,34,15.20
2017,05,22,01,35,15.20
2017,05,22,01,36,15.20
2017,05,22,01,37,15.20
2017,05,22,01,38,15.20
2017,05,22,01,39,15.20
2017,05,22,01,40,15.20
2017,05,22,01,41,15.20
2017,05,22,01,42,15.20
2017,05,22,01,43,15.20
2017,05,22,01,44,15.20
2017,05,22,01,45,15.20
2017,05,22,01,46,15.20
2017,05,22,01,47,15.20
2017,05,22,01,48,15.20
2017,05,22,01,49,15.10
2017,05,22,01,50,15.10
2017,05,22,01,51,15.10
2017,05,22,01,52,15.10
2017,05,22,01,53,15.10
2017,05,22,01,54,15.10
2017,05,22,01,55,15.00
2017,05,22,01,56,15.00
2017,05,22,01,57,15.00
2017,05,22,01,58,15.00
2017,05,22,01,59,14.90
2017,05,22,02,00,14.90
2017,05,22,02,01,14.90
2017,05,22,02,02,14.90
2017,05,22,02,03,14.90
2017,05,22,02,04,14.80
2017,05,22,02,05,14.80
2017,05,22,02,06,14.80
2017,05,22,02,07,14.80
2017,05,22,02,08,14.80
2017,05,22,02,09,14.80
2017,05,22,02,10,14.80
2017,05,22,02,11,14.70
2017,05,22,02,12,14.70
2017,05,22,02,13,14.70
2017,05,22,02,14,14.70
2017,05,22,02,15,14.70
2017,05,22,02,16,14.60
2017,05,22,02,17,14.60
2017,05,22,02,18,14.60
2017,05,22,02,19,14.60
2017,05,22,02,20,14.60
2017,05,22,02,21,14.60
2017,05,22,02,22,14.50
2017,05,22,02,23,14.50
2017,05,22,02,24,14.50
2017,05,22,02,25,14.50
2017,05,22,02,26,14.50
2017,05,22,02,27,14.50
2017,05,22,02,28,14.50
2017,05,22,02,29,14.50
2017,05,22,02,30,14.60
2017,05,22,02,31,14.60
2017,05,22,02,32,14.60
2017,05,22,02,33,14.60
2017,05,22,02,34,14.60
2017,05,22,02,35,14.60
2017,05,22,02,36,14.50
2017,05,22,02,37,14.50
2017,05,22,02,38,14.50
2017,05,22,02,39,14.50
2017,05,22,02,40,14.50
2017,05,22,02,41,14.50
2017,05,22,02,42,14.40
2017,05,22,02,43,14.40
2017,05,22,02,44,14.40
2017,05,22,02,45,14.40
2017,05,22,02,46,14.40
2017,05,22,02,47,14.40
2017,05,22,02,48,14.40
2017,05,22,02,49,14.30
2017,05,22,02,50,14.30
2017,05,22,02,51,14.30
2017,05,22,02,52,14.30
2017,05,22,02,53,14.30
2017,05,22,02,54,14.30
2017,05,22,02,55,14.30
2017,05,22,02,56,14.30
2017,05,22,02,57,14.30
2017,05,22,02,58,14.30
2017,05,22,02,59,14.30
2017,05,22,03,00,14.30
2017,05,22,03,01,14.30
2017,05,22,03,02,14.30
2017,05,22,03,03,14.30
2017,05,22,03,04,14.30
2017,05,22,03,05,14.30
2017,05,22,03,06,14.30
2017,05,22,03,07,14.30
2017,05,22,03,08,14.30
2017,05,22,03,09,14.30
2017,05,22,03,10,14.20
2017,05,22,03,11,14.20
2017,05,22,03,12,14.30
2017,05,22,03,13,14.30
2017,05,22,03,14,14.30
2017,05,22,03,15,14.30
2017,05,22,03,16,14.30
2017,05,22,03,17,14.30
2017,05,22,03,18,14.30
2017,05,22,03,19,14.30
2017,05,22,03,20,14.30
2017,05,22,03,21,14.30
2017,05,22,03,22,14.30
2017,05,22,03,23,14.30
2017,05,22,03,24,14.30
2017,05,22,03,25,14.30
2017,05,22,03,26,14.30
2017,05,22,03,27,14.30
2017,05,22,03,28,14.30
2017,05,22,03,29,14.30
2017,05,22,03,30,14.20
2017,05,22,03,31,14.20
2017,05,22,03,32,14.20
2017,05,22,03,33,14.20
2017,05,22,03,34,14.20
2017,05,22,03,35,14.20
2017,05,22,03,36,14.20
2017,05,22,03,37,14.20
2017,05,22,03,38,14.10
2017,05,22,03,39,14.10
2017,05,22,03,40,14.10
2017,05,22,03,41,14.10
2017,05,22,03,42,14.10
2017,05,22,03,43,14.00
2017,05,22,03,44,14.00
2017,05,22,03,45,14.00
2017,05,22,03,46,14.00
2017,05,22,03,47,14.00
2017,05,22,03,48,13.90
2017,05,22,03,49,13.90
2017,05,22,03,50,13.90
2017,05,22,03,51,13.90
2017,05,22,03,52,13.90
2017,05,22,03,53,13.80
2017,05,22,03,54,13.80
2017,05,22,03,55,13.80
2017,05,22,03,56,13.80
2017,05,22,03,57,13.80
2017,05,22,03,58,13.80
2017,05,22,03,59,13.80
2017,05,22,04,00,13.80
2017,05,22,04,01,13.80
2017,05,22,04,02,13.80
2017,05,22,04,03,13.80
2017,05,22,04,04,13.80
2017,05,22,04,05,13.80
2017,05,22,04,06,13.80
2017,05,22,04,07,13.80
2017,05,22,04,08,13.80
2017,05,22,04,09,13.80
2017,05,22,04,10,13.80
2017,05,22,04,11,13.80
2017,05,22,04,12,13.80
2017,05,22,04,13,13.80
2017,05,22,04,14,13.80
2017,05,22,04,15,13.80
2017,05,22,04,16,13.80
2017,05,22,04,17,13.80
2017,05,22,04,18,13.80
2017,05,22,04,19,13.80
2017,05,22,04,20,13.80
2017,05,22,04,21,13.80
2017,05,22,04,22,13.80
2017,05,22,04,23,13.80
2017,05,22,04,24,13.80
2017,05,22,04,25,13.80
2017,05,22,04,26,13.80
2017,05,22,04,27,13.80
2017,05,22,04,28,13.70
2017,05,22,04,29,13.70
2017,05,22,04,30,13.70
2017,05,22,04,31,13.70
2017,05,22,04,32,13.70
2017,05,22,04,33,13.70
2017,05,22,04,34,13.60
2017,05,22,04,35,13.60
2017,05,22,04,36,13.60
2017,05,22,04,37,13.60
2017,05,22,04,38,13.60
2017,05,22,04,39,13.50
2017,05,22,04,40,13.50
2017,05,22,04,41,13.50
2017,05,22,04,42,13.40
2017,05,22,04,43,13.40
2017,05,22,04,44,13.40
2017,05,22,04,45,13.40
2017,05,22,04,46,13.40
2017,05,22,04,47,13.30
2017,05,22,04,48,13.30
2017,05,22,04,49,13.30
2017,05,22,04,50,13.30
2017,05,22,04,51,13.30
2017,05,22,04,52,13.30
2017,05,22,04,53,13.20
2017,05,22,04,54,13.20
2017,05,22,04,55,13.20
2017,05,22,04,56,13.20
2017,05,22,04,57,13.20
2017,05,22,04,58,13.20
2017,05,22,04,59,13.20
2017,05,22,05,00,13.10
2017,05,22,05,01,13.10
2017,05,22,05,02,13.10
2017,05,22,05,03,13.10
2017,05,22,05,04,13.10
2017,05,22,05,05,13.10
2017,05,22,05,06,13.10
2017,05,22,05,07,13.10
2017,05,22,05,08,13.10
2017,05,22,05,09,13.10
2017,05,22,05,10,13.00
2017,05,22,05,11,13.00
2017,05,22,05,12,13.00
2017,05,22,05,13,13.00
2017,05,22,05,14,13.00
2017,05,22,05,15,13.00
2017,05,22,05,16,13.00
2017,05,22,05,17,13.00
2017,05,22,05,18,13.00
2017,05,22,05,19,12.90
2017,05,22,05,20,12.90
2017,05,22,05,21,12.90
2017,05,22,05,22,12.90
2017,05,22,05,23,12.90
2017,05,22,05,24,12.90
2017,05,22,05,25,12.80
2017,05,22,05,26,12.80
2017,05,22,05,27,12.80
2017,05,22,05,28,12.80
2017,05,22,05,29,12.80
2017,05,22,05,30,12.80
2017,05,22,05,31,12.80
2017,05,22,05,32,12.80
2017,05,22,05,33,12.70
2017,05,22,05,34,12.70
2017,05,22,05,35,12.70
2017,05,22,05,36,12.70
2017,05,22,05,37,12.70
2017,05,22,05,38,12.70
2017,05,22,05,39,12.70
2017,05,22,05,40,12.70
2017,05,22,05,41,12.70
2017,05,22,05,42,12.70
2017,05,22,05,43,12.70
2017,05,22,05,44,12.70
2017,05,22,05,45,12.70
2017,05,22,05,46,12.70
2017,05,22,05,47,12.70
2017,05,22,05,48,12.70
2017,05,22,05,49,12.70
2017,05,22,05,50,12.80
2017,05,22,05,51,12.80
2017,05,22,05,52,12.80
2017,05,22,05,53,12.90
2017,05,22,05,54,12.90
2017,05,22,05,55,13.00
2017,05,22,05,56,13.00
2017,05,22,05,57,13.00
2017,05,22,05,58,13.10
2017,05,22,05,59,13.10
2017,05,22,06,00,13.10
2017,05,22,06,01,13.20
2017,05,22,06,02,13.20
2017,05,22,06,03,13.20
2017,05,22,06,04,13.20
2017,05,22,06,05,13.30
2017,05,22,06,06,13.30
2017,05,22,06,07,13.30
2017,05,22,06,08,13.30
2017,05,22,06,09,13.30
2017,05,22,06,10,13.40
2017,05,22,06,11,13.40
2017,05,22,06,12,13.40
2017,05,22,06,13,13.40
2017,05,22,06,14,13.50
2017,05,22,06,15,13.50
2017,05,22,06,16,13.50
2017,05,22,06,17,13.60
2017,05,22,06,18,13.60
2017,05,22,06,19,13.60
2017,05,22,06,20,13.70
2017,05,22,06,21,13.70
2017,05,22,06,22,13.70
2017,05,22,06,23,13.70
2017,05,22,06,24,13.80
2017,05,22,06,25,13.80
2017,05,22,06,26,13.80
2017,05,22,06,27,13.90
2017,05,22,06,28,13.90
2017,05,22,06,29,14.00
2017,05,22,06,30,14.00
2017,05,22,06,31,14.10
2017,05,22,06,32,14.10
2017,05,22,06,33,14.20
2017,05,22,06,34,14.20
2017,05,22,06,35,14.30
2017,05,22,06,36,14.40
2017,05,22,06,37,14.40
2017,05,22,06,38,14.50
2017,05,22,06,39,14.50
2017,05,22,06,40,14.60
2017,05,22,06,41,14.70
2017,05,22,06,42,14.70
2017,05,22,06,43,14.70
2017,05,22,06,44,14.70
2017,05,22,06,45,14.70
2017,05,22,06,46,14.70
2017,05,22,06,47,14.70
2017,05,22,06,48,14.60
2017,05,22,06,49,14.50
2017,05,22,06,50,14.50
2017,05,22,06,51,14.40
2017,05,22,06,52,14.30
2017,05,22,06,53,14.20
2017,05,22,06,54,14.20
2017,05,22,06,55,14.10
2017,05,22,06,56,14.10
2017,05,22,06,57,14.00
2017,05,22,06,58,14.00
2017,05,22,06,59,14.00
2017,05,22,07,00,13.90
2017,05,22,07,01,13.90
2017,05,22,07,02,13.90
2017,05,22,07,03,13.90
2017,05,22,07,04,13.90
2017,05,22,07,05,13.90
2017,05,22,07,06,13.90
2017,05,22,07,07,13.90
2017,05,22,07,08,13.90
2017,05,22,07,09,14.00
2017,05,22,07,10,14.00
2017,05,22,07,11,14.10
2017,05,22,07,12,14.10
2017,05,22,07,13,14.10
2017,05,22,07,14,14.20
2017,05,22,07,15,14.20
2017,05,22,07,16,14.30
2017,05,22,07,17,14.30
2017,05,22,07,18,14.30
2017,05,22,07,19,14.40
2017,05,22,07,20,14.40
2017,05,22,07,21,14.50
2017,05,22,07,22,14.50
2017,05,22,07,23,14.60
2017,05,22,07,24,14.60
2017,05,22,07,25,14.70
2017,05,22,07,26,14.70
2017,05,22,07,27,14.80
2017,05,22,07,28,14.80
2017,05,22,07,29,14.80
2017,05,22,07,30,14.90
2017,05,22,07,31,14.90
2017,05,22,07,32,14.90
2017,05,22,07,33,15.00
2017,05,22,07,34,15.00
2017,05,22,07,35,15.10
2017,05,22,07,36,15.10
2017,05,22,07,37,15.10
2017,05,22,07,38,15.10
2017,05,22,07,39,15.10
2017,05,22,07,40,15.20
2017,05,22,07,41,15.20
2017,05,22,07,42,15.20
2017,05,22,07,43,15.20
2017,05,22,07,44,15.20
2017,05,22,07,45,15.20
2017,05,22,07,46,15.30
2017,05,22,07,47,15.30
2017,05,22,07,48,15.30
2017,05,22,07,49,15.40
2017,05,22,07,50,15.50
2017,05,22,07,51,15.50
2017,05,22,07,52,15.60
2017,05,22,07,53,15.70
2017,05,22,07,54,15.70
2017,05,22,07,55,15.80
2017,05,22,07,56,15.80
2017,05,22,07,57,15.80
2017,05,22,07,58,15.90
2017,05,22,07,59,15.90
2017,05,22,08,00,15.90
2017,05,22,08,01,16.00
2017,05,22,08,02,16.00
2017,05,22,08,03,16.10
2017,05,22,08,04,16.10
2017,05,22,08,05,16.20
2017,05,22,08,06,16.20
2017,05,22,08,07,16.30
2017,05,22,08,08,16.40
2017,05,22,08,09,16.40
2017,05,22,08,10,16.50
2017,05,22,08,11,16.60
2017,05,22,08,12,16.60
2017,05,22,08,13,16.70
2017,05,22,08,14,16.80
2017,05,22,08,15,16.80
2017,05,22,08,16,16.90
2017,05,22,08,17,17.00
2017,05,22,08,18,17.10
2017,05,22,08,19,17.10
2017,05,22,08,20,17.20
2017,05,22,08,21,17.30
2017,05,22,08,22,17.30
2017,05,22,08,23,17.40
2017,05,22,08,24,17.50
2017,05,22,08,25,17.50
2017,05,22,08,26,17.60
2017,05,22,08,27,17.60
2017,05,22,08,28,17.70
2017,05,22,08,29,17.70
2017,05,22,08,30,17.80
2017,05,22,08,31,17.80
2017,05,22,08,32,17.80
2017,05,22,08,33,17.90
2017,05,22,08,34,17.90
2017,05,22,08,35,18.00
2017,05,22,08,36,18.00
2017,05,22,08,37,18.10
2017,05,22,08,38,18.10
2017,05,22,08,39,18.10
2017,05,22,08,40,18.10
2017,05,22,08,41,18.10
2017,05,22,08,42,18.20
2017,05,22,08,43,18.20
2017,05,22,08,44,18.30
2017,05,22,08,45,18.30
2017,05,22,08,46,18.40
2017,05,22,08,47,18.40
2017,05,22,08,48,18.40
2017,05,22,08,49,18.50
2017,05,22,08,50,18.50
2017,05,22,08,51,18.60
2017,05,22,08,52,18.60
2017,05,22,08,53,18.60
2017,05,22,08,54,18.70
2017,05,22,08,55,18.70
2017,05,22,08,56,18.80
2017,05,22,08,57,18.80
2017,05,22,08,58,18.90
2017,05,22,08,59,19.00
2017,05,22,09,00,19.00
2017,05,22,09,01,19.10
2017,05,22,09,02,19.10
2017,05,22,09,03,19.20
2017,05,22,09,04,19.20
2017,05,22,09,05,19.20
2017,05,22,09,06,19.30
2017,05,22,09,07,19.30
2017,05,22,09,08,19.30
2017,05,22,09,09,19.30
2017,05,22,09,10,19.30
2017,05,22,09,11,19.30
2017,05,22,09,12,19.30
2017,05,22,09,13,19.30
2017,05,22,09,14,19.30
2017,05,22,09,15,19.30
2017,05,22,09,16,19.40
2017,05,22,09,17,19.40
2017,05,22,09,18,19.40
2017,05,22,09,19,19.50
2017,05,22,09,20,19.50
2017,05,22,09,21,19.60
2017,05,22,09,22,19.50
2017,05,22,09,23,19.50
2017,05,22,09,24,19.50
2017,05,22,09,25,19.40
2017,05,22,09,26,19.30
2017,05,22,09,27,19.20
2017,05,22,09,28,19.10
2017,05,22,09,29,19.00
2017,05,22,09,30,18.90
2017,05,22,09,31,18.80
2017,05,22,09,32,18.80
2017,05,22,09,33,18.70
2017,05,22,09,34,18.70
2017,05,22,09,35,18.70
2017,05,22,09,36,18.70
2017,05,22,09,37,18.70
2017,05,22,09,38,18.70
2017,05,22,09,39,18.70
2017,05,22,09,40,18.70
2017,05,22,09,41,18.80
2017,05,22,09,42,18.80
2017,05,22,09,43,18.80
2017,05,22,09,44,18.90
2017,05,22,09,45,18.90
2017,05,22,09,46,18.90
2017,05,22,09,47,18.90
2017,05,22,09,48,19.00
2017,05,22,09,49,19.00
2017,05,22,09,50,19.10
2017,05,22,09,51,19.10
2017,05,22,09,52,19.10
2017,05,22,09,53,19.10
2017,05,22,09,54,19.10
2017,05,22,09,55,19.10
2017,05,22,09,56,19.10
2017,05,22,09,57,19.20
2017,05,22,09,58,19.20
2017,05,22,09,59,19.20
2017,05,22,10,00,19.20
2017,05,22,10,01,19.20
2017,05,22,10,02,19.30
2017,05,22,10,03,19.30
2017,05,22,10,04,19.30
2017,05,22,10,05,19.40
2017,05,22,10,06,19.40
2017,05,22,10,07,19.50
2017,05,22,10,08,19.50
2017,05,22,10,09,19.50
2017,05,22,10,10,19.60
2017,05,22,10,11,19.60
2017,05,22,10,12,19.60
2017,05,22,10,13,19.60
2017,05,22,10,14,19.60
2017,05,22,10,15,19.70
2017,05,22,10,16,19.70
2017,05,22,10,17,19.70
2017,05,22,10,18,19.70
2017,05,22,10,19,19.70
2017,05,22,10,20,19.70
2017,05,22,10,21,19.80
2017,05,22,10,22,19.80
2017,05,22,10,23,19.90
2017,05,22,10,24,20.00
2017,05,22,10,25,20.00
2017,05,22,10,26,20.10
2017,05,22,10,27,20.20
2017,05,22,10,28,20.20
2017,05,22,10,29,20.20
2017,05,22,10,30,20.30
2017,05,22,10,31,20.30
2017,05,22,10,32,20.40
2017,05,22,10,33,20.50
2017,05,22,10,34,20.50
2017,05,22,10,35,20.60
2017,05,22,10,36,20.60
2017,05,22,10,37,20.50
2017,05,22,10,38,20.50
2017,05,22,10,39,20.40
2017,05,22,10,40,20.40
2017,05,22,10,41,20.40
2017,05,22,10,42,20.50
2017,05,22,10,43,20.50
2017,05,22,10,44,20.60
2017,05,22,10,45,20.60
2017,05,22,10,46,20.60
2017,05,22,10,47,20.70
2017,05,22,10,48,20.70
2017,05,22,10,49,20.70
2017,05,22,10,50,20.70
2017,05,22,10,51,20.80
2017,05,22,10,52,20.80
2017,05,22,10,53,20.80
2017,05,22,10,54,20.90
2017,05,22,10,55,20.90
2017,05,22,10,56,20.90
2017,05,22,10,57,21.00
2017,05,22,10,58,21.10
2017,05,22,10,59,21.20
2017,05,22,11,00,21.30
2017,05,22,11,01,21.40
2017,05,22,11,02,21.40
2017,05,22,11,03,21.40
2017,05,22,11,04,21.40
2017,05,22,11,05,21.40
2017,05,22,11,06,21.40
2017,05,22,11,07,21.40
2017,05,22,11,08,21.40
2017,05,22,11,09,21.40
2017,05,22,11,10,21.30
2017,05,22,11,11,21.40
2017,05,22,11,12,21.40
2017,05,22,11,13,21.50
2017,05,22,11,14,21.50
2017,05,22,11,15,21.60
2017,05,22,11,16,21.60
2017,05,22,11,17,21.70
2017,05,22,11,18,21.70
2017,05,22,11,19,21.70
2017,05,22,11,20,21.70
2017,05,22,11,21,21.80
2017,05,22,11,22,21.80
2017,05,22,11,23,21.90
2017,05,22,11,24,21.90
2017,05,22,11,25,21.90
2017,05,22,11,26,21.90
2017,05,22,11,27,22.00
2017,05,22,11,28,22.00
2017,05,22,11,29,22.10
2017,05,22,11,30,22.10
2017,05,22,11,31,22.10
2017,05,22,11,32,22.20
2017,05,22,11,33,22.30
2017,05,22,11,34,22.40
2017,05,22,11,35,22.50
2017,05,22,11,36,22.60
2017,05,22,11,37,22.70
2017,05,22,11,38,22.80
2017,05,22,11,39,22.80
2017,05,22,11,40,22.80
2017,05,22,11,41,22.80
2017,05,22,11,42,22.70
2017,05,22,11,43,22.70
2017,05,22,11,44,22.70
2017,05,22,11,45,22.60
2017,05,22,11,46,22.60
2017,05,22,11,47,22.60
2017,05,22,11,48,22.50
2017,05,22,11,49,22.60
2017,05,22,11,50,22.60
2017,05,22,11,51,22.70
2017,05,22,11,52,22.70
2017,05,22,11,53,22.70
2017,05,22,11,54,22.70
2017,05,22,11,55,22.70
2017,05,22,11,56,22.70
2017,05,22,11,57,22.80
2017,05,22,11,58,22.80
2017,05,22,11,59,22.80
2017,05,22,12,00,22.80
2017,05,22,12,01,22.90
2017,05,22,12,02,22.90
2017,05,22,12,03,22.90
2017,05,22,12,04,23.00
2017,05,22,12,05,23.00
2017,05,22,12,06,23.10
2017,05,22,12,07,23.20
2017,05,22,12,08,23.20
2017,05,22,12,09,23.30
2017,05,22,12,10,23.30
2017,05,22,12,11,23.30
2017,05,22,12,12,23.30
2017,05,22,12,13,23.30
2017,05,22,12,14,23.40
2017,05,22,12,15,23.40
2017,05,22,12,16,23.30
2017,05,22,12,17,23.30
2017,05,22,12,18,23.30
2017,05,22,12,19,23.30
2017,05,22,12,20,23.40
2017,05,22,12,21,23.40
2017,05,22,12,22,23.50
2017,05,22,12,23,23.60
2017,05,22,12,24,23.60
2017,05,22,12,25,23.60
2017,05,22,12,26,23.70
2017,05,22,12,27,23.70
2017,05,22,12,28,23.80
2017,05,22,12,29,23.80
2017,05,22,12,30,23.90
2017,05,22,12,31,23.90
2017,05,22,12,32,23.80
2017,05,22,12,33,23.80
2017,05,22,12,34,23.80
2017,05,22,12,35,23.80
2017,05,22,12,36,23.80
2017,05,22,12,37,23.80
2017,05,22,12,38,23.80
2017,05,22,12,39,23.80
2017,05,22,12,40,23.80
2017,05,22,12,41,23.70
2017,05,22,12,42,23.80
2017,05,22,12,43,23.80
2017,05,22,12,44,23.80
2017,05,22,12,45,23.90
2017,05,22,12,46,23.90
2017,05,22,12,47,23.90
2017,05,22,12,48,23.80
2017,05,22,12,49,23.80
2017,05,22,12,50,23.80
2017,05,22,12,51,23.80
2017,05,22,12,52,23.80
2017,05,22,12,53,23.80
2017,05,22,12,54,23.80
2017,05,22,12,55,23.70
2017,05,22,12,56,23.80
2017,05,22,12,57,23.80
2017,05,22,12,58,23.80
2017,05,22,12,59,23.80
2017,05,22,13,00,23.70
2017,05,22,13,01,23.60
2017,05,22,13,02,23.60
2017,05,22,13,03,23.50
2017,05,22,13,04,23.50
2017,05,22,13,05,23.50
2017,05,22,13,06,23.50
2017,05,22,13,07,23.60
2017,05,22,13,08,23.60
2017,05,22,13,09,23.70
2017,05,22,13,10,23.70
2017,05,22,13,11,23.80
2017,05,22,13,12,23.80
2017,05,22,13,13,23.80
2017,05,22,13,14,23.80
2017,05,22,13,15,23.90
2017,05,22,13,16,24.00
2017,05,22,13,17,24.00
2017,05,22,13,18,24.10
2017,05,22,13,19,24.20
2017,05,22,13,20,24.20
2017,05,22,13,21,24.20
2017,05,22,13,22,24.20
2017,05,22,13,23,24.20
2017,05,22,13,24,24.30
2017,05,22,13,25,24.30
2017,05,22,13,26,24.30
2017,05,22,13,27,24.30
2017,05,22,13,28,24.30
2017,05,22,13,29,24.40
2017,05,22,13,30,24.40
2017,05,22,13,31,24.40
2017,05,22,13,32,24.40
2017,05,22,13,33,24.40
2017,05,22,13,34,24.40
2017,05,22,13,35,24.40
2017,05,22,13,36,24.40
2017,05,22,13,37,24.40
2017,05,22,13,38,24.30
2017,05,22,13,39,24.30
2017,05,22,13,40,24.30
2017,05,22,13,41,24.20
2017,05,22,13,42,24.20
2017,05,22,13,43,24.10
2017,05,22,13,44,24.10
2017,05,22,13,45,24.20
2017,05,22,13,46,24.20
2017,05,22,13,47,24.30
2017,05,22,13,48,24.40
2017,05,22,13,49,24.40
2017,05,22,13,50,24.30
2017,05,22,13,51,24.30
2017,05,22,13,52,24.30
2017,05,22,13,53,24.30
2017,05,22,13,54,24.30
2017,05,22,13,55,24.20
2017,05,22,13,56,24.20
2017,05,22,13,57,24.20
2017,05,22,13,58,24.20
2017,05,22,13,59,24.10
2017,05,22,14,00,24.10
2017,05,22,14,01,24.10
2017,05,22,14,02,24.10
2017,05,22,14,03,24.20
2017,05,22,14,04,24.30
2017,05,22,14,05,24.30
2017,05,22,14,06,24.30
2017,05,22,14,07,24.30
2017,05,22,14,08,24.30
2017,05,22,14,09,24.30
2017,05,22,14,10,24.40
2017,05,22,14,11,24.40
2017,05,22,14,12,24.40
2017,05,22,14,13,24.30
2017,05,22,14,14,24.30
2017,05,22,14,15,24.20
2017,05,22,14,16,24.20
2017,05,22,14,17,24.30
2017,05,22,14,18,24.40
2017,05,22,14,19,24.60
2017,05,22,14,20,24.70
2017,05,22,14,21,24.80
2017,05,22,14,22,24.80
2017,05,22,14,23,24.80
2017,05,22,14,24,24.80
2017,05,22,14,25,24.80
2017,05,22,14,26,24.80
2017,05,22,14,27,24.80
2017,05,22,14,28,24.80
2017,05,22,14,29,24.90
2017,05,22,14,30,24.90
2017,05,22,14,31,24.90
2017,05,22,14,32,24.90
2017,05,22,14,33,24.90
2017,05,22,14,34,24.90
2017,05,22,14,35,25.00
2017,05,22,14,36,25.10
2017,05,22,14,37,25.10
2017,05,22,14,38,25.10
2017,05,22,14,39,25.10
2017,05,22,14,40,25.20
2017,05,22,14,41,25.30
2017,05,22,14,42,25.40
2017,05,22,14,43,25.40
2017,05,22,14,44,25.40
2017,05,22,14,45,25.30
2017,05,22,14,46,25.20
2017,05,22,14,47,25.20
2017,05,22,14,48,25.20
2017,05,22,14,49,25.20
2017,05,22,14,50,25.20
2017,05,22,14,51,25.20
2017,05,22,14,52,24.90
2017,05,22,14,53,24.20
2017,05,22,14,54,23.70
2017,05,22,14,55,23.20
2017,05,22,14,56,22.70
2017,05,22,14,57,22.30
2017,05,22,14,58,22.00
2017,05,22,14,59,21.90
2017,05,22,15,00,21.80
2017,05,22,15,01,21.70
2017,05,22,15,02,21.70
2017,05,22,15,03,21.80
2017,05,22,15,04,21.80
2017,05,22,15,05,21.80
2017,05,22,15,06,21.80
2017,05,22,15,07,21.70
2017,05,22,15,08,21.70
2017,05,22,15,09,21.80
2017,05,22,15,10,21.80
2017,05,22,15,11,21.90
2017,05,22,15,12,21.90
2017,05,22,15,13,21.80
2017,05,22,15,14,21.80
2017,05,22,15,15,21.80
2017,05,22,15,16,21.80
2017,05,22,15,17,21.80
2017,05,22,15,18,21.80
2017,05,22,15,19,21.80
2017,05,22,15,20,21.70
2017,05,22,15,21,21.70
2017,05,22,15,22,21.60
2017,05,22,15,23,21.60
2017,05,22,15,24,21.60
2017,05,22,15,25,21.60
2017,05,22,15,26,21.70
2017,05,22,15,27,21.90
2017,05,22,15,28,22.10
2017,05,22,15,29,22.20
2017,05,22,15,30,22.30
2017,05,22,15,31,22.30
2017,05,22,15,32,22.30
2017,05,22,15,33,22.20
2017,05,22,15,34,22.20
2017,05,22,15,35,22.20
2017,05,22,15,36,22.30
2017,05,22,15,37,22.30
2017,05,22,15,38,22.40
2017,05,22,15,39,22.40
2017,05,22,15,40,22.40
2017,05,22,15,41,22.40
2017,05,22,15,42,22.40
2017,05,22,15,43,22.40
2017,05,22,15,44,22.40
2017,05,22,15,45,22.30
2017,05,22,15,46,22.30
2017,05,22,15,47,22.30
2017,05,22,15,48,22.20
2017,05,22,15,49,22.00
2017,05,22,15,50,21.80
2017,05,22,15,51,21.60
2017,05,22,15,52,21.30
2017,05,22,15,53,21.10
2017,05,22,15,54,20.90
2017,05,22,15,55,20.90
2017,05,22,15,56,20.80
2017,05,22,15,57,20.80
2017,05,22,15,58,20.80
2017,05,22,15,59,20.80
2017,05,22,16,00,20.80
2017,05,22,16,01,20.80
2017,05,22,16,02,20.80
2017,05,22,16,03,20.80
2017,05,22,16,04,20.80
2017,05,22,16,05,20.80
2017,05,22,16,06,20.80
2017,05,22,16,07,20.80
2017,05,22,16,08,20.80
2017,05,22,16,09,20.80
2017,05,22,16,10,20.80
2017,05,22,16,11,20.80
2017,05,22,16,12,20.80
2017,05,22,16,13,20.90
2017,05,22,16,14,21.00
2017,05,22,16,15,21.00
2017,05,22,16,16,21.10
2017,05,22,16,17,21.10
2017,05,22,16,18,21.10
2017,05,22,16,19,21.20
2017,05,22,16,20,21.20
2017,05,22,16,21,21.20
2017,05,22,16,22,21.20
2017,05,22,16,23,21.10
2017,05,22,16,24,21.10
2017,05,22,16,25,21.00
2017,05,22,16,26,20.90
2017,05,22,16,27,20.80
2017,05,22,16,28,20.80
2017,05,22,16,29,20.70
2017,05,22,16,30,20.70
2017,05,22,16,31,20.70
2017,05,22,16,32,20.70
2017,05,22,16,33,20.70
2017,05,22,16,34,20.70
2017,05,22,16,35,20.80
2017,05,22,16,36,20.80
2017,05,22,16,37,20.90
2017,05,22,16,38,21.00
2017,05,22,16,39,21.00
2017,05,22,16,40,21.00
2017,05,22,16,41,21.00
2017,05,22,16,42,21.10
2017,05,22,16,43,21.10
2017,05,22,16,44,21.20
2017,05,22,16,45,21.20
2017,05,22,16,46,21.20
2017,05,22,16,47,21.20
2017,05,22,16,48,21.20
2017,05,22,16,49,21.20
2017,05,22,16,50,21.20
2017,05,22,16,51,21.20
2017,05,22,16,52,21.30
2017,05,22,16,53,21.20
2017,05,22,16,54,21.20
2017,05,22,16,55,21.30
2017,05,22,16,56,21.30
2017,05,22,16,57,21.30
2017,05,22,16,58,21.30
2017,05,22,16,59,21.40
2017,05,22,17,00,21.40
2017,05,22,17,01,21.40
2017,05,22,17,02,21.40
2017,05,22,17,03,21.40
2017,05,22,17,04,21.30
2017,05,22,17,05,21.20
2017,05,22,17,06,21.20
2017,05,22,17,07,21.30
2017,05,22,17,08,21.30
2017,05,22,17,09,21.30
2017,05,22,17,10,21.30
2017,05,22,17,11,21.30
2017,05,22,17,12,21.40
2017,05,22,17,13,21.40
2017,05,22,17,14,21.50
2017,05,22,17,15,21.50
2017,05,22,17,16,21.60
2017,05,22,17,17,21.60
2017,05,22,17,18,21.70
2017,05,22,17,19,21.70